• MPC Preparation (Info)

  • MPEC 2023-F54 : 2023 FY

    The following Minor Planet Electronic Circular may be linked-to from your own Web pages, but must not otherwise be redistributed electronically.

    A form allowing access to any MPEC is at the bottom of this page.


    Read MPEC 2023-F53 Read MPEC 2023-F55


    M.P.E.C. 2023-F54                                Issued 2023 March 19, 13:24 UT
    
         The Minor Planet Electronic Circulars contain information on unusual
             minor planets, routine data on comets and natural satellites,
             and occasional editorial announcements.  They are published
        on behalf of Division F of the International Astronomical Union by the
              Minor Planet Center, Smithsonian Astrophysical Observatory,
                              Cambridge, MA 02138, U.S.A.
    			  
                 Prepared using the Tamkin Foundation Computer Network
    
                                  MPC@CFA.HARVARD.EDU
                URL https://www.minorplanetcenter.net/    ISSN 1523-6714
    
                                     2023 FY                                 
    
    
    Observations:
         K23F00Y* C2023 03 17.40061411 34 19.070+21 09 17.75         22.67GVEF054V00
         K23F00Y  C2023 03 17.40557911 34 19.751+21 09 13.28         23.04GVEF054V00
         K23F00Y  C2023 03 17.41053711 34 20.456+21 09 08.78         22.76GVEF054V00
         K23F00Y  C2023 03 17.41549911 34 21.126+21 09 05.08               VEF054V00
         K23F00Y mC2023 03 17.46267311 34 28.081+21 08 21.16         22.62GVEF054V00
         K23F00Y mC2023 03 17.46357111 34 28.204+21 08 20.00         22.71GVEF054V00
         K23F00Y mC2023 03 17.46447111 34 28.355+21 08 19.32         23.19GVEF054V00
         K23F00Y mC2023 03 17.46536911 34 28.484+21 08 18.49         22.90GVEF054V00
         K23F00Y mC2023 03 18.27997811 37 21.558+20 59 46.75         22.36GVEF054V00
         K23F00Y mC2023 03 18.28133911 37 21.709+20 59 45.89         22.47GVEF054V00
         K23F00Y mC2023 03 18.28270011 37 21.882+20 59 44.88         22.24GVEF054V00
         K23F00Y mC2023 03 18.28414811 37 22.048+20 59 43.94         22.62GVEF054V00
         K23F00Y mC2023 03 19.22729311 40 27.325+20 48 32.94         22.73GVEF054V00
         K23F00Y mC2023 03 19.22888711 40 27.527+20 48 32.26         22.51GVEF054V00
         K23F00Y mC2023 03 19.23047911 40 27.710+20 48 31.54         22.50GVEF054V00
         K23F00Y mC2023 03 19.23207211 40 27.916+20 48 30.46         22.67GVEF054V00
    
    Observer details:
    V00 Kitt Peak-Bok.  Observer H. Groeller.  Measurers M. J. Brucker, E. J.
        Christensen, C. E. Woodward, D. Fay, J. B. Fazekas, D. C. Fuls, A. R.
        Gibbs, A. D. Grauer, H. Groeller, J. K. Hogan, R. A. Kowalski, S. M.
        Larson, G. J. Leonard, R. S. McMillan, D. Rankin, R. L. Seaman, A.
        Serrano, F. C. Shelly, K. W. Wierzchos.  2.25-m reflector + 4x4K mosaic
        CCD.
    
    Orbital elements:
    2023 FY                                                  Earth MOID = 0.0371 AU
    Epoch 2023 Feb. 25.0 TT = JDT 2460000.5                 Veres                   
    M   3.41758              (2000.0)            P               Q                  
    n   0.78630697     Peri.   13.12787     -0.87574522     -0.48259051             
    a   1.1625402      Node   138.00898     +0.44112156     -0.81107423             
    e   0.1174653      Incl.    1.13855     +0.19616849     -0.33055256             
    P   1.25           H   28.68          G   0.15           U   8                  
    Residuals in seconds of arc
    230317 V00  0.0   0.2+    230317 V00  0.1-  0.0     230319 V00  0.0   0.2-
    230317 V00  0.1+  0.0     230317 V00  0.2-  0.1+    230319 V00  0.1+  0.0
    230317 V00  0.4+  0.2-    230318 V00  0.1+  0.1+    230319 V00  0.1-  0.2+
    230317 V00  0.1+  0.5+    230318 V00  0.1-  0.1+    230319 V00  0.0   0.0
    230317 V00  0.0   0.2+    230318 V00  0.1+  0.1-
    230317 V00  0.2-  0.1-    230318 V00  0.0   0.1-
    
    Ephemeris:
    2023 FY                  a,e,i = 1.16, 0.12, 1                   q = 1.0260
    Date    TT    R. A. (2000) Decl.     Delta      r    Elong.  Phase     V
    2023 02 17    09 40 09.9 +19 15 14   0.03858 1.0262   171.6     8.1    22.2
    ...
    2023 03 04    10 42 17.1 +22 05 17   0.03812 1.0281   164.3    15.2    22.5
    ...
    2023 03 12    11 15 03.7 +21 54 36   0.04064 1.0320   161.5    17.8    22.7
    ...
    2023 03 18    11 36 24.5 +21 03 35   0.04373 1.0363   160.0    19.2    22.9
    2023 03 19    11 39 38.2 +20 52 03   0.04434 1.0371   159.8    19.4    23.0
    2023 03 20    11 42 46.2 +20 39 43   0.04499 1.0379   159.6    19.6    23.0
    ...
    2023 03 26    11 59 44.5 +19 10 40   0.04950 1.0435   158.5    20.5    23.3
    ...
    2023 04 03    12 18 10.3 +16 41 50   0.05715 1.0525   157.2    21.6    23.6
    ...
    2023 04 18    12 43 19.3 +11 25 49   0.07673 1.0732   153.7    24.5    24.4
    
    M. P. C. Staff               (C) Copyright 2023 MPC           M.P.E.C. 2023-F54
    


    Read MPEC 2023-F53 Read MPEC 2023-F55


    MPEC number:

    Enter an MPEC number in one of the following forms:

    • 1997-B01 (the full form)
    • J97B01 (the packed version of the full form)
    • B01 (the abbreviated form)